�������l�o���
Date,Time,MP-1(��Sv/h),MP-2(��Sv/h),MP-3(��Sv/h),MP-4(��Sv/h),MP-5(��Sv/h),MP-6(��Sv/h),MP-7(��Sv/h),MP-8(��Sv/h),����,����(m/s),���J
2020/07/28,00:00,0.637,0.907,0.578,1.098,0.792,0.388,0.656,0.619,��,3.2,�L
2020/07/28,00:10,0.637,0.905,0.577,1.099,0.790,0.389,0.656,0.619,��,2.2,�L
2020/07/28,00:20,0.639,0.906,0.577,1.101,0.791,0.389,0.658,0.619,�쐼,0.6,�L
2020/07/28,00:30,0.638,0.904,0.577,1.098,0.793,0.388,0.656,0.617,���k��,0.6,�L
2020/07/28,00:40,0.638,0.908,0.577,1.101,0.790,0.389,0.656,0.620,-,CALM,�L
2020/07/28,00:50,0.638,0.905,0.578,1.100,0.791,0.389,0.657,0.619,�k��,0.6,�L
2020/07/28,01:00,0.636,0.905,0.578,1.099,0.790,0.388,0.657,0.620,�k�k��,0.9,�L
2020/07/28,01:10,0.637,0.906,0.577,1.097,0.789,0.389,0.655,0.618,�k��,0.6,�L
2020/07/28,01:20,0.637,0.902,0.576,1.100,0.789,0.388,0.655,0.619,���쓌,0.6,�L
2020/07/28,01:30,0.639,0.903,0.575,1.099,0.789,0.388,0.657,0.618,��쓌,0.9,�L
2020/07/28,01:40,0.637,0.904,0.575,1.097,0.788,0.388,0.654,0.620,��쓌,1.5,�L
2020/07/28,01:50,0.638,0.903,0.576,1.100,0.789,0.388,0.656,0.618,��쓌,1.7,�L
2020/07/28,02:00,0.638,0.901,0.576,1.098,0.789,0.387,0.654,0.617,��,0.9,�L
2020/07/28,02:10,0.637,0.902,0.577,1.095,0.788,0.387,0.656,0.619,�쓌,0.9,�L
2020/07/28,02:20,0.638,0.902,0.576,1.095,0.786,0.388,0.655,0.619,��쓌,1.1,�L
2020/07/28,02:30,0.638,0.900,0.576,1.094,0.788,0.387,0.657,0.617,�쓌,0.9,�L
2020/07/28,02:40,0.637,0.901,0.578,1.094,0.787,0.389,0.656,0.617,���쓌,0.6,�L
2020/07/28,02:50,0.637,0.904,0.577,1.099,0.789,0.388,0.655,0.619,�쓌,0.6,�L
2020/07/28,03:00,0.637,0.902,0.575,1.095,0.789,0.387,0.654,0.617,-,CALM,�L
2020/07/28,03:10,0.637,0.901,0.576,1.096,0.788,0.388,0.654,0.618,��,0.6,�L
2020/07/28,03:20,0.637,0.902,0.576,1.097,0.790,0.388,0.654,0.619,-,CALM,�L
2020/07/28,03:30,0.637,0.903,0.577,1.093,0.789,0.388,0.655,0.618,-,CALM,�L
2020/07/28,03:40,0.639,0.901,0.576,1.094,0.786,0.389,0.657,0.617,-,CALM,�L
2020/07/28,03:50,0.640,0.903,0.575,1.094,0.787,0.388,0.656,0.619,���k��,0.6,�L
2020/07/28,04:00,0.638,0.904,0.577,1.093,0.788,0.389,0.655,0.618,�k,0.9,�L
2020/07/28,04:10,0.638,0.902,0.577,1.093,0.788,0.390,0.654,0.618,�k�k��,1.1,�L
2020/07/28,04:20,0.638,0.903,0.577,1.095,0.788,0.390,0.656,0.617,-,CALM,�L
2020/07/28,04:30,0.637,0.904,0.575,1.095,0.786,0.389,0.652,0.619,���k��,0.9,�L
2020/07/28,04:40,0.638,0.904,0.576,1.091,0.788,0.389,0.655,0.617,�k��,1.2,�L
2020/07/28,04:50,0.638,0.904,0.576,1.093,0.786,0.387,0.653,0.619,�k��,1.4,�L
2020/07/28,05:00,0.639,0.903,0.575,1.094,0.786,0.389,0.653,0.617,�k��,1.2,�L
2020/07/28,05:10,0.639,0.903,0.577,1.093,0.787,0.388,0.654,0.617,�k��,0.9,�L
2020/07/28,05:20,0.636,0.903,0.577,1.095,0.790,0.388,0.654,0.616,-,CALM,�L
2020/07/28,05:30,0.638,0.905,0.576,1.089,0.786,0.389,0.654,0.617,-,CALM,�L
2020/07/28,05:40,0.637,0.900,0.575,1.092,0.787,0.388,0.653,0.617,��,0.6,�L
2020/07/28,05:50,0.639,0.902,0.578,1.091,0.786,0.389,0.653,0.617,��,0.6,�L
2020/07/28,06:00,0.638,0.901,0.578,1.093,0.788,0.389,0.653,0.616,-,CALM,�L
2020/07/28,06:10,0.635,0.897,0.577,1.088,0.786,0.388,0.652,0.616,��쐼,0.9,�L
2020/07/28,06:20,0.638,0.898,0.577,1.088,0.786,0.386,0.652,0.617,��쓌,0.8,�L
2020/07/28,06:30,0.638,0.899,0.573,1.089,0.786,0.388,0.652,0.616,-,CALM,�L
2020/07/28,06:40,0.636,0.900,0.575,1.088,0.784,0.388,0.652,0.614,-,CALM,�L
2020/07/28,06:50,0.636,0.898,0.576,1.090,0.783,0.387,0.652,0.617,�k,0.6,�L
2020/07/28,07:00,0.634,0.899,0.573,1.089,0.785,0.388,0.654,0.616,�k,0.9,�L
2020/07/28,07:10,0.638,0.899,0.572,1.088,0.785,0.388,0.652,0.615,�k�k��,1.2,�L
2020/07/28,07:20,0.635,0.898,0.573,1.089,0.785,0.386,0.653,0.616,�k�k��,1.7,�L
2020/07/28,07:30,0.635,0.898,0.576,1.087,0.782,0.386,0.653,0.615,�k,2.3,�L
2020/07/28,07:40,0.634,0.897,0.572,1.086,0.781,0.387,0.651,0.615,�k,2.5,�L
2020/07/28,07:50,0.634,0.896,0.572,1.086,0.782,0.385,0.651,0.615,�k�k��,2.6,�L
2020/07/28,08:00,0.635,0.895,0.572,1.085,0.779,0.385,0.651,0.615,�k�k��,2.8,�L
2020/07/28,08:10,0.635,0.898,0.574,1.083,0.782,0.386,0.653,0.615,�k,3.6,�L
2020/07/28,08:20,0.635,0.895,0.573,1.085,0.783,0.387,0.652,0.614,�k�k��,3.9,�L
2020/07/28,08:30,0.634,0.895,0.573,1.085,0.780,0.386,0.651,0.613,�k�k��,3.5,�L
2020/07/28,08:40,0.634,0.892,0.574,1.084,0.780,0.386,0.651,0.615,�k�k��,3.7,�L
2020/07/28,08:50,0.635,0.894,0.574,1.085,0.781,0.387,0.649,0.616,�k�k��,3.4,�L
2020/07/28,09:00,0.634,0.891,0.573,1.085,0.781,0.390,0.652,0.616,�k�k��,2.9,�L
2020/07/28,09:10,0.633,0.890,0.575,1.082,0.779,0.388,0.650,0.613,�k�k��,2.6,�L
2020/07/28,09:20,0.635,0.888,0.575,1.081,0.778,0.388,0.650,0.614,�k��,1.5,�L
2020/07/28,09:30,0.634,0.890,0.575,1.082,0.778,0.386,0.650,0.615,�k��,1.5,�L
2020/07/28,09:40,0.633,0.888,0.573,1.079,0.779,0.387,0.649,0.614,���k��,1.1,�L
2020/07/28,09:50,0.632,0.884,0.574,1.078,0.777,0.386,0.649,0.613,-,CALM,�L
2020/07/28,10:00,0.628,0.879,0.571,1.072,0.773,0.385,0.647,0.612,�k��,3.4,�L
2020/07/28,10:10,0.630,0.881,0.573,1.074,0.773,0.385,0.646,0.613,���k��,1.2,�L
2020/07/28,10:20,0.631,0.881,0.572,1.075,0.772,0.386,0.647,0.613,�k��,1.5,�L
2020/07/28,10:30,0.634,0.882,0.572,1.075,0.774,0.386,0.647,0.612,�k��,1.4,�L
2020/07/28,10:40,0.632,0.885,0.571,1.075,0.776,0.386,0.646,0.614,���k��,1.2,�L
2020/07/28,10:50,0.633,0.886,0.572,1.074,0.770,0.385,0.649,0.613,�k��,1.5,�L
2020/07/28,11:00,0.634,0.885,0.572,1.074,0.773,0.386,0.648,0.614,�k��,0.9,�L
2020/07/28,11:10,0.633,0.883,0.572,1.075,0.773,0.386,0.648,0.613,�k��,0.9,�L
2020/07/28,11:20,0.635,0.885,0.572,1.074,0.772,0.386,0.648,0.611,�k��,1.1,�L
2020/07/28,11:30,0.632,0.885,0.571,1.073,0.775,0.386,0.649,0.613,���k��,0.9,�L
2020/07/28,11:40,0.635,0.888,0.571,1.074,0.772,0.386,0.649,0.612,�k�k��,0.9,�L
2020/07/28,11:50,0.634,0.889,0.572,1.074,0.771,0.387,0.649,0.612,���k��,1.2,�L
2020/07/28,12:00,0.631,0.888,0.570,1.072,0.771,0.385,0.647,0.612,���k��,0.8,�L
2020/07/28,12:10,0.633,0.886,0.569,1.071,0.772,0.387,0.647,0.613,���k��,0.6,�L
2020/07/28,12:20,0.631,0.889,0.571,1.073,0.772,0.385,0.648,0.613,�k,0.6,�L
2020/07/28,12:30,0.633,0.889,0.573,1.073,0.770,0.388,0.647,0.613,���k��,1.1,�L
2020/07/28,12:40,0.633,0.887,0.571,1.074,0.772,0.387,0.646,0.614,���k��,1.5,�L
2020/07/28,12:50,0.632,0.888,0.574,1.070,0.771,0.386,0.646,0.612,�k�k��,1.7,�L
2020/07/28,13:00,0.635,0.886,0.573,1.071,0.771,0.389,0.646,0.612,�k�k��,2.3,�L
2020/07/28,13:10,0.632,0.886,0.574,1.071,0.770,0.387,0.647,0.613,�k�k��,2.3,�L
2020/07/28,13:20,0.630,0.878,0.572,1.068,0.765,0.386,0.645,0.610,�k��,1.7,�L
2020/07/28,13:30,0.628,0.875,0.571,1.062,0.761,0.386,0.642,0.609,�k�k��,2.3,�L
2020/07/28,13:40,0.633,0.878,0.573,1.064,0.763,0.387,0.643,0.610,�k�k��,1.9,�L
2020/07/28,13:50,0.634,0.883,0.575,1.067,0.766,0.388,0.644,0.610,�k��,1.7,�L
2020/07/28,14:00,0.635,0.883,0.574,1.068,0.767,0.388,0.646,0.612,�k��,1.9,�L
2020/07/28,14:10,0.636,0.880,0.575,1.070,0.765,0.390,0.646,0.611,�k�k��,2.0,�L
2020/07/28,14:20,0.635,0.882,0.576,1.071,0.767,0.389,0.645,0.609,�쓌,0.6,�L
2020/07/28,14:30,0.635,0.882,0.575,1.071,0.768,0.390,0.647,0.613,�쓌,1.1,�L
2020/07/28,14:40,0.637,0.886,0.577,1.073,0.767,0.389,0.645,0.613,�쓌,0.9,�L
2020/07/28,14:50,0.637,0.887,0.574,1.073,0.770,0.389,0.646,0.612,�k�k��,0.8,�L
2020/07/28,15:00,0.636,0.884,0.574,1.072,0.766,0.389,0.645,0.611,�k��,0.6,�L
2020/07/28,15:10,0.636,0.887,0.573,1.075,0.766,0.389,0.646,0.612,-,CALM,�L
2020/07/28,15:20,0.635,0.885,0.575,1.074,0.766,0.390,0.645,0.613,�쓌,0.8,�L
2020/07/28,15:30,0.635,0.887,0.575,1.073,0.767,0.389,0.647,0.612,��쓌,1.5,�L
2020/07/28,15:40,0.636,0.891,0.575,1.076,0.768,0.389,0.645,0.614,��쓌,1.9,�L
2020/07/28,15:50,0.637,0.889,0.574,1.075,0.768,0.388,0.646,0.612,��,1.9,�L
2020/07/28,16:00,0.636,0.889,0.574,1.077,0.768,0.388,0.646,0.612,��쓌,2.9,�L
2020/07/28,16:10,0.637,0.891,0.573,1.075,0.767,0.387,0.646,0.613,��,2.0,�L
2020/07/28,16:20,0.636,0.892,0.573,1.077,0.769,0.386,0.647,0.612,��쐼,1.7,�L
2020/07/28,16:30,0.635,0.888,0.572,1.076,0.766,0.387,0.647,0.612,�k,2.0,�L
2020/07/28,16:40,0.631,0.882,0.573,1.066,0.761,0.387,0.645,0.611,���k��,4.4,�L
2020/07/28,16:50,0.631,0.879,0.574,1.061,0.758,0.390,0.643,0.612,�k,5.3,�L
2020/07/28,17:00,0.630,0.879,0.573,1.057,0.757,0.389,0.642,0.608,�k,2.0,�L
2020/07/28,17:10,0.632,0.878,0.575,1.058,0.756,0.390,0.641,0.607,-,CALM,�L
2020/07/28,17:20,0.633,0.880,0.575,1.058,0.753,0.392,0.642,0.610,�k�k��,3.5,�L
2020/07/28,17:30,0.629,0.874,0.572,1.051,0.748,0.392,0.641,0.606,�k��,13.8,�L
2020/07/28,17:40,0.629,0.874,0.570,1.045,0.749,0.392,0.638,0.606,�k,3.5,�L
2020/07/28,17:50,0.630,0.876,0.573,1.049,0.745,0.391,0.638,0.605,�k��,5.8,�L
2020/07/28,18:00,0.633,0.879,0.572,1.047,0.747,0.393,0.640,0.605,�k,4.4,�L
2020/07/28,18:10,0.635,0.881,0.571,1.050,0.748,0.393,0.640,0.606,�k�k��,7.3,�L
2020/07/28,18:20,0.637,0.882,0.574,1.052,0.749,0.393,0.641,0.608,�k,6.3,�L
2020/07/28,18:30,0.637,0.884,0.573,1.053,0.749,0.395,0.642,0.609,�k�k��,6.8,�L
2020/07/28,18:40,0.639,0.887,0.574,1.058,0.749,0.394,0.642,0.609,�k�k��,6.9,�L
2020/07/28,18:50,0.635,0.884,0.572,1.060,0.750,0.393,0.643,0.610,�k�k��,7.7,�L
2020/07/28,19:00,0.637,0.885,0.574,1.054,0.749,0.394,0.642,0.612,�k��,6.1,�L
2020/07/28,19:10,0.637,0.886,0.575,1.055,0.748,0.394,0.643,0.612,�k�k��,6.7,�L
2020/07/28,19:20,0.637,0.889,0.575,1.062,0.748,0.394,0.644,0.613,�k��,7.8,�L
2020/07/28,19:30,0.638,0.887,0.574,1.061,0.749,0.393,0.645,0.612,�k�k��,6.8,�L
2020/07/28,19:40,0.636,0.889,0.574,1.064,0.752,0.392,0.645,0.613,�k�k��,7.3,�L
2020/07/28,19:50,0.635,0.891,0.574,1.065,0.750,0.391,0.644,0.613,�k�k��,7.2,�L
2020/07/28,20:00,0.637,0.887,0.573,1.068,0.749,0.391,0.645,0.613,�k�k��,6.8,�L
2020/07/28,20:10,0.635,0.889,0.573,1.064,0.750,0.391,0.643,0.612,�k�k��,6.9,�L
2020/07/28,20:20,0.635,0.886,0.573,1.067,0.749,0.387,0.644,0.612,�k�k��,6.2,�L
2020/07/28,20:30,0.634,0.889,0.570,1.065,0.747,0.388,0.644,0.612,�k,6.7,�L
2020/07/28,20:40,0.634,0.887,0.569,1.067,0.746,0.388,0.644,0.612,�k,6.3,�L
2020/07/28,20:50,0.635,0.888,0.570,1.068,0.748,0.385,0.642,0.613,�k�k��,6.0,��
2020/07/28,21:00,0.634,0.889,0.569,1.067,0.746,0.385,0.644,0.612,�k,6.1,�L
2020/07/28,21:10,0.633,0.888,0.567,1.068,0.747,0.385,0.642,0.612,�k,5.6,��
2020/07/28,21:20,0.631,0.887,0.567,1.072,0.749,0.384,0.643,0.612,�k,5.5,��
2020/07/28,21:30,0.631,0.888,0.567,1.071,0.746,0.383,0.642,0.614,�k,4.9,��
2020/07/28,21:40,0.633,0.892,0.565,1.071,0.747,0.382,0.643,0.612,�k�k��,5.0,��
2020/07/28,21:50,0.631,0.889,0.565,1.072,0.746,0.382,0.643,0.611,�k�k��,5.3,��
2020/07/28,22:00,0.630,0.891,0.564,1.076,0.749,0.380,0.645,0.614,�k�k��,5.5,�L
2020/07/28,22:10,0.632,0.891,0.567,1.076,0.748,0.383,0.641,0.613,�k�k��,5.2,�L
2020/07/28,22:20,0.630,0.891,0.567,1.077,0.750,0.380,0.643,0.614,�k�k��,5.0,��
2020/07/28,22:30,0.631,0.890,0.567,1.076,0.750,0.381,0.644,0.614,�k�k��,5.2,�L
2020/07/28,22:40,0.631,0.889,0.568,1.078,0.750,0.381,0.644,0.613,�k�k��,5.4,�L
2020/07/28,22:50,0.630,0.891,0.566,1.076,0.750,0.381,0.643,0.612,�k,5.5,�L
2020/07/28,23:00,0.629,0.889,0.567,1.077,0.751,0.379,0.645,0.613,�k,5.1,�L
2020/07/28,23:10,0.631,0.890,0.565,1.073,0.750,0.382,0.643,0.614,�k,5.1,�L
2020/07/28,23:20,0.631,0.888,0.564,1.075,0.751,0.380,0.642,0.612,�k,4.9,�L
2020/07/28,23:30,0.629,0.888,0.565,1.073,0.748,0.381,0.643,0.613,�k,5.6,�L
2020/07/28,23:40,0.628,0.888,0.566,1.073,0.747,0.381,0.642,0.612,�k,5.7,�L
2020/07/28,23:50,0.628,0.888,0.565,1.072,0.747,0.382,0.643,0.612,�k,5.9,�L
